Zurück zum Katalog

CZ-2C DEB

AktivSSO
NORAD 37767·DEBRIS·🇨🇳 China

Gestartet Jul 29, 2011 von Jiuquan Satellite Launch Center

Loading…

Nächste Überflüge (nächste 24 Stunden)

TLE

AktuellSource: Space-Track

Epoche: Sep 14, 2026, 10:54 UTC

1 37767U 11039C   26257.45471350  .00002322  00000-0  61394-3 0  9990
2 37767  97.9151 324.2771 0121830 163.8884 196.6238 14.45372643790047

Verfolge CZ-2C DEB in Echtzeit mit AllMySat

Download on the App Store